Location: Adavinekkalam
(16.6301°N, 80.7229°E)
Time: 08:36:42
(UTC+00:00)

ATLAS 2AS CENTAUR R/B - Pass Details

Date: 15 May 2026
Orbit: 1053 x 1158 km, 63.7° (Epoch: 6 June)

Event Time Altitude Azimuth Distance (km) Brightness Sun altitude
Rises 21:11:42 0° 350° (N) 3,821 6.0 -37.2°
Reaches altitude 10° 21:14:39 10° 0° (N) 2,873 5.3 -36.7°
Maximum altitude 21:20:36 32° 62° (ENE) 1,742 4.2 -35.6°
Drops below altitude 10° 21:26:37 10° 123° (ESE) 2,919 5.1 -34.5°
Sets 21:29:36 0° 133° (SE) 3,891 5.8 -33.9°
